Back to catalog

FENGYUN 1C DEB

AliveSSO
NORAD 38519·DEBRIS·🇨🇳 China

Launched May 10, 1999 from Taiyuan Satellite Launch Center

Loading…

Next Passes (next 24 hours)

TLE

AgingSource: Space-Track

Epoch: Sep 8, 2026, 04:51 UTC

1 38519U 99025ETE 26251.20258232  .00001602  00000-0  12167-2 0  9999
2 38519  99.5524 238.0440 0172752  44.8755 316.6221 13.88547336884762

Track FENGYUN 1C DEB in real time with AllMySat

Download on the App Store